Onweer radar Meer informatie blitzortung!


Regen radar Meer informatie rain snow radar



Select another period ( hide this area )

Eenheden Periode Custom range Directly to
Metrisch Engels Beide
Dagelijkse Wekelijkse Maandelijkse Jaarlijkse
use both date-selectors for a custom range
previous Dag
With this date

WeatherUnderground graphs for this period ( click here )


Dagelijkse Samenvatting Maandag 21 oktober 2019
Tijd Temp. ( °C ) Dew pt. ( °C ) Wind ( km/h ) van Windvlaag ( km/h ) Luchtdruk ( hPa ) Humid.( % ) Rainrate ( cm )
Hoog11,2 9,9 19,5 NNO ( 255/787 ) 20,9 1012,4 93 5,30
Gemiddeld10,8 9,4 7,1 ONO #35/111 13,6 1011,1 91 5,50
Laag10,4 9,1 -   6,4 1010,4 90 -
Dagelijkse Tabular details for Maandag 21 oktober 2019
Tijd Temp. ( °C ) Dew pt. ( °C ) Wind ( km/h ) van Windvlaag ( km/h ) Luchtdruk ( hPa ) Humid.( % ) Rainrate ( cm )
00:03 11,2 9,9 4,7 NNO 16,1 1010,7 92 -
00:08 11,2 9,9 3,2 ONO 17,7 1010,4 92 -
00:13 11,2 9,9 4,7 NO 9,7 1010,4 92 -
00:18 11,2 9,9 9,7 NNO 12,9 1010,4 92 -
00:23 11,2 9,9 4,7 NO 6,4 1010,7 92 -
00:28 11,2 9,9 7,9 NNO 8,0 1010,7 92 -
00:33 11,2 9,9 4,7 NO 9,7 1010,7 92 -
00:38 11,2 9,9 3,2 ONO 14,5 1010,7 92 -
00:43 11,2 9,9 3,2 Noorden 11,3 1010,7 92 -
00:48 11,2 9,9 3,2 NO 9,7 1011,1 92 -
00:53 11,2 9,9 4,7 NO 14,5 1011,1 92 -
00:58 11,2 9,9 11,1 NNO 11,3 1010,7 92 -
01:03 11,2 9,9 6,4 NNO 12,9 1010,7 92 -
01:08 11,2 9,9 6,4 NNO 11,3 1011,1 92 -
01:13 11,1 9,7 3,2 ONO 11,3 1011,1 91 -
01:18 11,2 9,8 3,2 ONO 12,9 1011,1 91 -
01:23 11,1 9,7 7,9 ONO 14,5 1011,1 91 -
01:28 11,1 9,7 3,2 Oosten 16,1 1010,7 91 -
01:33 11,1 9,7 4,7 NO 11,3 1010,7 91 -
01:38 11,1 9,7 9,7 NO 14,5 1010,7 91 -
01:43 11,1 9,7 9,7 NNO 16,1 1010,7 91 -
01:48 11,2 9,8 11,1 NNO 20,9 1010,7 91 -
01:53 11,2 9,8 6,4 NNO 14,5 1010,7 91 -
01:58 11,2 9,8   Kalm 12,9 1010,7 91 -
02:03 11,2 9,8 7,9 NNO 19,3 1010,7 91 -
02:08 11,2 9,8 6,4 NNO 11,3 1010,7 91 -
02:13 11,1 9,7 7,9 NNO 14,5 1011,1 91 -
02:18 11,1 9,7 14,3 NO 17,7 1011,4 91 -
02:23 11,1 9,7 7,9 NNO 14,5 1011,4 91 -
02:28 11,1 9,7 6,4 NNO 16,1 1011,1 91 -
02:33 11,1 9,5 6,4 NO 17,7 1011,1 90 -
02:38 11,0 9,4 11,1 NO 17,7 1011,1 90 -
02:43 11,0 9,4 9,7 NNO 14,5 1011,1 90 -
02:48 11,0 9,4 6,4 NO 12,9 1011,1 90 -
02:53 11,0 9,4 9,7 NNO 12,9 1011,1 90 -
02:58 11,0 9,4 7,9 NO 14,5 1010,7 90 -
03:03 11,0 9,4 9,7 NNO 16,1 1010,7 90 -
03:08 10,9 9,3 7,9 NNO 16,1 1010,7 90 -
03:13 10,9 9,3 7,9 ONO 17,7 1011,1 90 -
03:18 10,9 9,3 7,9 NO 11,3 1011,1 90 -
03:23 10,9 9,3 7,9 NO 12,9 1010,7 90 -
03:28 10,8 9,2 3,2 ONO 19,3 1010,7 90 -
03:33 10,8 9,2 6,4 NNO 16,1 1010,7 90 -
03:38 10,8 9,4 11,1 NO 12,9 1011,1 91 -
03:43 10,8 9,2 7,9 Noorden 12,9 1011,1 90 -
03:48 10,7 9,1 6,4 NO 12,9 1011,1 90 -
03:53 10,7 9,1 17,7 ONO 17,7 1011,1 90 -
03:58 10,7 9,1 9,7 NNO 16,1 1010,7 90 -
04:03 10,7 9,1 13,0 NNO 12,9 1011,1 90 -
04:08 10,7 9,1 19,5 NNO 19,3 1011,1 90 -
04:13 10,7 9,1 13,0 NNO 17,7 1011,1 90 -
04:18 10,7 9,1 14,3 NO 17,7 1011,4 90 -
04:23 10,7 9,1 9,7 NO 14,5 1011,4 90 -
04:28 10,7 9,3 13,0 Oosten 12,9 1011,1 91 -
04:33 10,7 9,3 11,1 NO 19,3 1011,1 91 -
04:38 10,7 9,3 7,9 Oosten 11,3 1011,1 91 -
04:43 10,7 9,3 7,9 ONO 19,3 1010,7 91 -
04:48 10,7 9,3 13,0 NO 14,5 1010,7 91 -
04:53 10,7 9,3 11,1 ONO 17,7 1010,7 91 -
04:58 10,7 9,3 4,7 NO 16,1 1011,1 91 -
05:03 10,7 9,3 7,9 NO 11,3 1011,1 91 -
05:08 10,7 9,3 4,7 NNO 14,5 1011,1 91 -
05:13 10,7 9,3 1,4 ONO 14,5 1010,7 91 -
05:18 10,7 9,3 9,7 Oosten 12,9 1010,7 91 -
05:23 10,7 9,3 6,4 ONO 12,9 1010,7 91 -
05:28 10,7 9,3 6,4 NNO 16,1 1010,7 91 -
05:33 10,7 9,3 4,7 ZO 11,3 1010,7 91 -
05:38 10,7 9,5 9,7 NNO 11,3 1010,7 92 -
05:43 10,6 9,2 4,7 ONO 14,5 1010,7 91 -
05:48 10,6 9,4 7,9 Noorden 16,1 1010,7 92 -
05:53 10,6 9,4 1,4 ONO 12,9 1010,7 92 -
05:58 10,6 9,4 9,7 Oosten 12,9 1010,7 92 -
06:03 10,6 9,4 6,4 ONO 11,3 1010,7 92 -
06:08 10,6 9,4   Kalm 9,7 1011,1 92 0,30
06:13 10,6 9,4 1,4 NO 11,3 1011,1 92 0,50
06:18 10,6 9,4 7,9 NO 12,9 1011,1 92 0,50
06:23 10,6 9,4 6,4 ONO 9,7 1011,4 92 0,50
06:28 10,6 9,4 4,7 NNO 11,3 1011,1 92 0,50
06:33 10,6 9,4 4,7 NO 12,9 1011,1 92 1,00
06:38 10,6 9,4 7,9 ONO 11,3 1011,1 92 1,50
06:43 10,6 9,4 4,7 Oosten 14,5 1011,1 92 1,50
06:48 10,6 9,4 4,7 ONO 12,9 1011,1 92 1,50
06:53 10,5 9,3 7,9 ONO 17,7 1011,1 92 2,00
06:58 10,5 9,3 4,7 Oosten 16,1 1011,4 92 2,30
07:03 10,5 9,3 7,9 ONO 11,3 1011,4 92 2,80
07:08 10,5 9,3 3,2 NNO 11,3 1011,4 92 3,00
07:13 10,5 9,3 6,4 NNO 11,3 1011,4 92 3,30
07:18 10,5 9,3 13,0 Oosten 14,5 1011,4 92 3,80
07:23 10,4 9,2 6,4 ONO 12,9 1011,1 92 4,30
07:28 10,4 9,2 3,2 ONO 6,4 1011,4 92 4,30
07:33 10,4 9,2 6,4 NO 12,9 1011,7 92 4,30
07:38 10,4 9,2 7,9 NNO 9,7 1011,4 92 4,10
07:43 10,4 9,2 6,4 ONO 8,0 1011,7 92 4,30
07:48 10,4 9,2 3,2 Oosten 12,9 1011,7 92 4,60
07:53 10,4 9,2 4,7 NO 9,7 1011,7 92 5,10
07:58 10,4 9,2 6,4 ONO 16,1 1011,4 92 5,10
08:03 10,4 9,2 9,7 NO 14,5 1011,4 92 5,30
08:08 10,4 9,2 6,4 ONO 14,5 1011,4 92 5,10
08:13 10,4 9,2 1,4 ONO 8,0 1011,4 92 4,80
08:18 10,4 9,2 6,4 ONO 14,5 1011,7 92 4,30
08:23 10,4 9,2 3,2 NNO 12,9 1011,7 92 3,80
08:28 10,4 9,2 6,4 NO 14,5 1011,7 92 3,60
08:33 10,4 9,2 4,7 ONO 14,5 1011,7 92 3,30
08:38 10,4 9,2 7,9 ONO 12,9 1011,7 92 3,30
08:43 10,4 9,2 6,4 ONO 14,5 1011,7 92 3,00
08:48 10,4 9,2 6,4 ONO 12,9 1011,7 92 2,30
08:53 10,4 9,3 1,4 ONO 8,0 1012,1 93 1,50
08:58 10,4 9,3 6,4 ONO 8,0 1012,1 93 1,00
09:03 10,4 9,3 14,3 ONO 14,5 1012,1 93 0,50
09:08 10,4 9,3 11,1 ONO 12,9 1012,1 93 0,50
09:13 10,4 9,3 3,2 Oosten 8,0 1012,4 93 0,30
Dagelijkse Samenvatting Maandag 21 oktober 2019
Tijd Temp. ( °C ) Dew pt. ( °C ) Wind ( km/h ) van Windvlaag ( km/h ) Luchtdruk ( hPa ) Humid.( % ) Rainrate ( cm )
Hoog11,2 9,9 19,5 NNO ( 255/787 ) 20,9 1012,4 93 5,30
Gemiddeld10,8 9,4 7,1 ONO #35/111 13,6 1011,1 91 5,50
Laag10,4 9,1 -   6,4 1010,4 90 -
Dagelijkse Tabular details for Maandag 21 oktober 2019
Tijd Temp. ( °C ) Dew pt. ( °C ) Wind ( km/h ) van Windvlaag ( km/h ) Luchtdruk ( hPa ) Humid.( % ) Rainrate ( cm )
00:03 11,2 9,9 4,7 NNO 16,1 1010,7 92 -
00:08 11,2 9,9 3,2 ONO 17,7 1010,4 92 -
00:13 11,2 9,9 4,7 NO 9,7 1010,4 92 -
00:18 11,2 9,9 9,7 NNO 12,9 1010,4 92 -
00:23 11,2 9,9 4,7 NO 6,4 1010,7 92 -
00:28 11,2 9,9 7,9 NNO 8,0 1010,7 92 -
00:33 11,2 9,9 4,7 NO 9,7 1010,7 92 -
00:38 11,2 9,9 3,2 ONO 14,5 1010,7 92 -
00:43 11,2 9,9 3,2 Noorden 11,3 1010,7 92 -
00:48 11,2 9,9 3,2 NO 9,7 1011,1 92 -
00:53 11,2 9,9 4,7 NO 14,5 1011,1 92 -
00:58 11,2 9,9 11,1 NNO 11,3 1010,7 92 -
01:03 11,2 9,9 6,4 NNO 12,9 1010,7 92 -
01:08 11,2 9,9 6,4 NNO 11,3 1011,1 92 -
01:13 11,1 9,7 3,2 ONO 11,3 1011,1 91 -
01:18 11,2 9,8 3,2 ONO 12,9 1011,1 91 -
01:23 11,1 9,7 7,9 ONO 14,5 1011,1 91 -
01:28 11,1 9,7 3,2 Oosten 16,1 1010,7 91 -
01:33 11,1 9,7 4,7 NO 11,3 1010,7 91 -
01:38 11,1 9,7 9,7 NO 14,5 1010,7 91 -
01:43 11,1 9,7 9,7 NNO 16,1 1010,7 91 -
01:48 11,2 9,8 11,1 NNO 20,9 1010,7 91 -
01:53 11,2 9,8 6,4 NNO 14,5 1010,7 91 -
01:58 11,2 9,8   Kalm 12,9 1010,7 91 -
02:03 11,2 9,8 7,9 NNO 19,3 1010,7 91 -
02:08 11,2 9,8 6,4 NNO 11,3 1010,7 91 -
02:13 11,1 9,7 7,9 NNO 14,5 1011,1 91 -
02:18 11,1 9,7 14,3 NO 17,7 1011,4 91 -
02:23 11,1 9,7 7,9 NNO 14,5 1011,4 91 -
02:28 11,1 9,7 6,4 NNO 16,1 1011,1 91 -
02:33 11,1 9,5 6,4 NO 17,7 1011,1 90 -
02:38 11,0 9,4 11,1 NO 17,7 1011,1 90 -
02:43 11,0 9,4 9,7 NNO 14,5 1011,1 90 -
02:48 11,0 9,4 6,4 NO 12,9 1011,1 90 -
02:53 11,0 9,4 9,7 NNO 12,9 1011,1 90 -
02:58 11,0 9,4 7,9 NO 14,5 1010,7 90 -
03:03 11,0 9,4 9,7 NNO 16,1 1010,7 90 -
03:08 10,9 9,3 7,9 NNO 16,1 1010,7 90 -
03:13 10,9 9,3 7,9 ONO 17,7 1011,1 90 -
03:18 10,9 9,3 7,9 NO 11,3 1011,1 90 -
03:23 10,9 9,3 7,9 NO 12,9 1010,7 90 -
03:28 10,8 9,2 3,2 ONO 19,3 1010,7 90 -
03:33 10,8 9,2 6,4 NNO 16,1 1010,7 90 -
03:38 10,8 9,4 11,1 NO 12,9 1011,1 91 -
03:43 10,8 9,2 7,9 Noorden 12,9 1011,1 90 -
03:48 10,7 9,1 6,4 NO 12,9 1011,1 90 -
03:53 10,7 9,1 17,7 ONO 17,7 1011,1 90 -
03:58 10,7 9,1 9,7 NNO 16,1 1010,7 90 -
04:03 10,7 9,1 13,0 NNO 12,9 1011,1 90 -
04:08 10,7 9,1 19,5 NNO 19,3 1011,1 90 -
04:13 10,7 9,1 13,0 NNO 17,7 1011,1 90 -
04:18 10,7 9,1 14,3 NO 17,7 1011,4 90 -
04:23 10,7 9,1 9,7 NO 14,5 1011,4 90 -
04:28 10,7 9,3 13,0 Oosten 12,9 1011,1 91 -
04:33 10,7 9,3 11,1 NO 19,3 1011,1 91 -
04:38 10,7 9,3 7,9 Oosten 11,3 1011,1 91 -
04:43 10,7 9,3 7,9 ONO 19,3 1010,7 91 -
04:48 10,7 9,3 13,0 NO 14,5 1010,7 91 -
04:53 10,7 9,3 11,1 ONO 17,7 1010,7 91 -
04:58 10,7 9,3 4,7 NO 16,1 1011,1 91 -
05:03 10,7 9,3 7,9 NO 11,3 1011,1 91 -
05:08 10,7 9,3 4,7 NNO 14,5 1011,1 91 -
05:13 10,7 9,3 1,4 ONO 14,5 1010,7 91 -
05:18 10,7 9,3 9,7 Oosten 12,9 1010,7 91 -
05:23 10,7 9,3 6,4 ONO 12,9 1010,7 91 -
05:28 10,7 9,3 6,4 NNO 16,1 1010,7 91 -
05:33 10,7 9,3 4,7 ZO 11,3 1010,7 91 -
05:38 10,7 9,5 9,7 NNO 11,3 1010,7 92 -
05:43 10,6 9,2 4,7 ONO 14,5 1010,7 91 -
05:48 10,6 9,4 7,9 Noorden 16,1 1010,7 92 -
05:53 10,6 9,4 1,4 ONO 12,9 1010,7 92 -
05:58 10,6 9,4 9,7 Oosten 12,9 1010,7 92 -
06:03 10,6 9,4 6,4 ONO 11,3 1010,7 92 -
06:08 10,6 9,4   Kalm 9,7 1011,1 92 0,30
06:13 10,6 9,4 1,4 NO 11,3 1011,1 92 0,50
06:18 10,6 9,4 7,9 NO 12,9 1011,1 92 0,50
06:23 10,6 9,4 6,4 ONO 9,7 1011,4 92 0,50
06:28 10,6 9,4 4,7 NNO 11,3 1011,1 92 0,50
06:33 10,6 9,4 4,7 NO 12,9 1011,1 92 1,00
06:38 10,6 9,4 7,9 ONO 11,3 1011,1 92 1,50
06:43 10,6 9,4 4,7 Oosten 14,5 1011,1 92 1,50
06:48 10,6 9,4 4,7 ONO 12,9 1011,1 92 1,50
06:53 10,5 9,3 7,9 ONO 17,7 1011,1 92 2,00
06:58 10,5 9,3 4,7 Oosten 16,1 1011,4 92 2,30
07:03 10,5 9,3 7,9 ONO 11,3 1011,4 92 2,80
07:08 10,5 9,3 3,2 NNO 11,3 1011,4 92 3,00
07:13 10,5 9,3 6,4 NNO 11,3 1011,4 92 3,30
07:18 10,5 9,3 13,0 Oosten 14,5 1011,4 92 3,80
07:23 10,4 9,2 6,4 ONO 12,9 1011,1 92 4,30
07:28 10,4 9,2 3,2 ONO 6,4 1011,4 92 4,30
07:33 10,4 9,2 6,4 NO 12,9 1011,7 92 4,30
07:38 10,4 9,2 7,9 NNO 9,7 1011,4 92 4,10
07:43 10,4 9,2 6,4 ONO 8,0 1011,7 92 4,30
07:48 10,4 9,2 3,2 Oosten 12,9 1011,7 92 4,60
07:53 10,4 9,2 4,7 NO 9,7 1011,7 92 5,10
07:58 10,4 9,2 6,4 ONO 16,1 1011,4 92 5,10
08:03 10,4 9,2 9,7 NO 14,5 1011,4 92 5,30
08:08 10,4 9,2 6,4 ONO 14,5 1011,4 92 5,10
08:13 10,4 9,2 1,4 ONO 8,0 1011,4 92 4,80
08:18 10,4 9,2 6,4 ONO 14,5 1011,7 92 4,30
08:23 10,4 9,2 3,2 NNO 12,9 1011,7 92 3,80
08:28 10,4 9,2 6,4 NO 14,5 1011,7 92 3,60
08:33 10,4 9,2 4,7 ONO 14,5 1011,7 92 3,30
08:38 10,4 9,2 7,9 ONO 12,9 1011,7 92 3,30
08:43 10,4 9,2 6,4 ONO 14,5 1011,7 92 3,00
08:48 10,4 9,2 6,4 ONO 12,9 1011,7 92 2,30
08:53 10,4 9,3 1,4 ONO 8,0 1012,1 93 1,50
08:58 10,4 9,3 6,4 ONO 8,0 1012,1 93 1,00
09:03 10,4 9,3 14,3 ONO 14,5 1012,1 93 0,50
09:08 10,4 9,3 11,1 ONO 12,9 1012,1 93 0,50
09:13 10,4 9,3 3,2 Oosten 8,0 1012,4 93 0,30

Download your copy of this data-set  here

Our weather-data as stored at Weather Underground. Script ontwikkeld door Jim McMurry. Aangepast voor de template door Leuven-Template.eu

U vindt ons ook hier:

UK Metoffice

Weather Underground

AWEKAS